Location: Arrakis Observatory
(44.1122°N, 95.7153°W)
Time: 11:33:37
(UTC-05:00)

Daily predictions for brighter satellites

Satellite Brightness Start Highest point End
(mag) Time Altitude Azimuth Time Altitude Azimuth Time Altitude Azimuth
Cosmos 1953 Rocket 4.0 19:46:02 10° N 19:50:07 38° ENE 19:54:09 10° SE
Thor Agena Rocket 3.7 19:44:59 10° NNE 19:50:10 54° E 19:55:15 10° S
Cosmos 1606 Rocket 3.9 19:47:31 10° SSE 19:51:36 41° E 19:55:42 10° NNE
Cosmos 2228 4.1 19:49:51 10° SE 19:53:22 24° E 19:56:54 10° NE
Cosmos 1570 Rocket 4.1 19:49:17 10° SSW 19:54:31 84° WNW 19:59:48 10° NNE
Cosmos 1763 Rocket 4.2 19:52:26 10° SSE 19:56:47 29° E 20:01:10 10° NE
Cosmos 2208 Rocket 4.2 19:51:48 10° SSW 19:57:16 88° WNW 20:02:44 10° NNE
ATLAS CENTAUR R/B 4.1 19:41:25 10° NW 19:59:51 68° NNE 20:05:38 10° ESE
EP 1 4.1 19:58:20 10° SSW 20:00:59 78° SE 20:03:35 10° NE
Meteor 2-5 Rocket 4.1 19:56:53 10° N 20:02:33 46° ENE 20:08:04 10° SSE
Cosmos 1943 Rocket 2.2 20:03:03 10° NNW 20:08:40 82° ENE 20:14:17 10° SSE
Cosmos 1825 Rocket 3.6 20:06:08 10° N 20:10:34 90° SE 20:14:59 10° S
Cosmos 1184 Rocket 4.1 20:07:49 10° NNW 20:11:06 46° W 20:14:21 10° S
H-2A R/B 2.6 20:10:15 10° SSE 20:13:55 69° ENE 20:17:39 10° N
Cosmos 2181 Rocket 3.9 20:08:11 10° N 20:14:26 75° E 20:20:34 10° SSE
Meteor 2-13 Rocket 4.5 20:11:51 10° S 20:17:47 57° E 20:23:43 10° NNE
Spot 2 Rocket 4.2 20:13:25 10° SE 20:17:55 33° ENE 20:22:24 10° N
Cosmos 1939 Rocket 4.4 20:19:29 15° E 20:20:43 17° ENE 20:23:18 10° NNE
Cosmos 1766 4.4 20:18:53 10° SE 20:22:02 24° E 20:25:12 10° NE
Cosmos 1898 Rocket 3.8 20:20:44 10° NNW 20:25:54 71° WSW 20:31:03 10° S
Tiangong 2 4.0 20:26:38 10° SW 20:27:24 11° SW 20:28:10 10° SSW
FengYun 1-2 T 4.3 20:22:55 10° SSE 20:28:33 84° WSW 20:34:10 10° NNW
USA 81 4.0 20:24:02 10° N 20:29:21 79° E 20:34:37 10° S
COSMOS 2406 4.1 20:25:36 10° SSE 20:30:16 27° ESE 20:34:59 10° NE
Cosmos 1707 2.7 20:27:27 10° N 20:31:25 87° WSW 20:35:20 10° S
Cosmos 1814 Rocket 3.9 20:26:55 10° S 20:32:03 72° ESE 20:37:11 10° NNE
Cosmos 304 Rocket 4.2 20:27:56 10° S 20:32:22 39° ESE 20:36:50 10° NE
Cosmos 1125 Rocket 4.4 20:31:39 10° N 20:36:20 31° ENE 20:38:48 21° ESE
Cosmos 2074 Rocket 4.0 20:31:09 10° SSE 20:37:12 56° E 20:43:15 10° NNE
Cosmos 1340 Rocket 3.7 20:35:11 10° NNW 20:39:09 53° W 20:43:07 10° S
Cosmos 2150 Rocket 4.1 20:36:05 10° NNW 20:41:24 80° WSW 20:46:47 10° SSE
Cosmos 1758 Rocket 4.3 20:37:12 10° NNW 20:41:37 56° W 20:46:00 10° S
Cosmos 990 Rocket 4.1 20:36:39 10° NNW 20:41:50 80° WSW 20:46:58 10° SSE
Cosmos 2369 Rocket 4.0 20:38:32 10° NW 20:43:29 32° WSW 20:48:22 10° SSW
Resurs 1-3 3.6 20:40:34 13° SSE 20:44:20 59° ENE 20:48:40 10° N
Cosmos 389 Rocket 3.8 20:41:10 10° SSW 20:44:31 41° WNW 20:47:52 10° N
Cosmos 1356 Rocket 3.4 20:41:16 10° N 20:45:34 68° ENE 20:49:19 13° SSE
SL-08 ROCKET BODY 4.4 20:41:28 10° S 20:47:20 87° W 20:53:19 10° N
ALOS 4.3 20:44:23 10° SSW 20:48:25 29° W 20:52:29 10° NW
Envisat 3.0 20:45:42 15° SSE 20:49:47 58° ENE 20:54:47 10° N
Lacrosse 5 4.1 20:46:19 10° WNW 20:50:06 21° WSW 20:53:52 10° S
Cosmos 1726 Rocket 4.4 20:46:48 10° SSW 20:51:04 52° WNW 20:55:20 10° N
Cosmos 1656 Rocket 3.6 20:45:37 10° NNW 20:51:18 80° ENE 20:55:34 18° SSE
USA 186 1.4 20:57:05 56° NNE 20:57:05 56° NNE 20:59:11 10° N
Resurs 01 Rocket 1.5 20:54:18 13° SSE 20:58:18 89° ENE 21:02:45 10° NNW
Cosmos 372 Rocket 4.5 20:54:49 10° N 20:59:48 41° ENE 21:01:24 33° ESE
Cosmos 1805 4.0 21:02:26 34° ENE 21:02:26 34° ENE 21:05:16 10° NNE
Nadezhda 3 Rocket 4.2 20:56:07 10° N 21:02:15 49° ENE 21:05:26 27° SE
BREEZE-M (TANK) 4.4 20:48:32 10° WNW 21:02:31 52° SW 21:05:13 22° SSE
Cosmos 1674 4.3 21:01:29 10° NNE 21:03:22 21° NE 21:03:22 21° NE
CZ-2D R/B 3.8 21:01:54 10° S 21:05:39 56° W 21:09:24 10° NNW
GP-B 3.0 21:02:53 10° N 21:07:19 62° E 21:09:18 31° SSE
In-Cosmos 22 4.1 21:02:30 10° N 21:08:11 81° E 21:12:39 17° SSE
Cosmos 1953 4.5 21:12:45 14° NE 21:12:45 14° NE 21:13:32 10° NNE
Cosmos 2184 Rocket 4.0 21:04:04 10° S 21:10:22 85° W 21:16:46 10° N
Cosmos 841 Rocket 3.6 21:10:12 10° SSW 21:15:20 75° WNW 21:20:30 10° NNE
YAOGAN 6 3.3 21:19:15 41° NNE 21:19:15 41° NNE 21:21:55 10° N
Cosmos 1610 Rocket 4.4 21:13:24 10° S 21:19:45 81° E 21:26:10 10° N
Meteor 1-24 Rocket 4.1 21:14:20 10° NNW 21:20:19 68° W 21:26:07 10° S
ATLAS 2AS CENTAUR R/B 4.0 21:15:28 10° NNW 21:22:37 33° NNE 21:25:45 25° ENE
BREEZE M DEB (TANK) 3.1 21:19:05 10° W 21:23:57 37° NNW 21:24:28 34° N
Cosmos 1544 3.2 21:23:50 44° SSW 21:24:49 71° W 21:28:27 10° N
Cosmos 1812 Rocket 3.4 21:26:00 47° S 21:27:16 81° E 21:31:46 10° N
Cosmos 2084 3.6 21:25:45 10° SW 21:29:45 62° NW 21:31:16 34° NNE
Cosmos 1066 4.5 21:25:15 10° N 21:30:46 76° E 21:32:13 50° SSE
NOSS 3-1 (A) 4.1 21:24:29 10° NW 21:32:07 81° SW 21:36:22 33° SSE
Cosmos 1295 Rocket 4.5 21:37:25 53° ESE 21:37:46 54° E 21:43:40 10° NNE
Okean 3 Rocket 4.3 21:34:25 10° N 21:37:41 41° NNE 21:37:41 41° NNE
GEOS 3 Rocket 3.7 21:40:27 10° NE 21:45:52 82° NW 21:51:15 10° SW
Cosmos 540 Rocket 3.5 21:42:14 10° SSW 21:47:19 77° WNW 21:52:28 10° NNE
Cosmos 1939 Rocket 4.0 21:55:24 39° W 21:55:24 39° W 21:59:03 10° NNW
Cosmos 1980 Rocket 4.0 21:53:14 10° N 21:56:29 18° NE 21:56:29 18° NE
Cosmos 1697 Rocket 4.0 21:53:01 10° N 21:57:04 27° NE 21:57:04 27° NE
Cosmos 962 Rocket 4.4 21:55:57 42° S 21:58:20 90° SSW 22:04:46 10° N
USA 267 4.5 21:55:43 24° NE 21:58:23 32° NNE 22:04:02 10° NW
MetOp-B 4.4 22:02:01 56° NNE 22:02:01 56° NNE 22:06:29 10° N
Cosmos 1809 Rocket 4.5 22:04:47 65° NE 22:04:47 65° NE 22:10:11 10° NNE
Meteor 1-21 Rocket 4.3 22:01:24 10° NNW 22:07:11 75° W 22:07:35 71° SW
COSMOS 2406 4.1 22:08:46 10° SW 22:14:16 49° WNW 22:19:51 10° NNE
Cosmos 1656 4.4 22:10:42 10° NNW 22:15:00 43° NNE 22:15:00 43° NNE
H-2A R/B 3.4 22:22:55 31° N 22:22:55 31° N 22:25:36 10° N
Cosmos 2341 Rocket 4.3 22:19:03 43° SW 22:20:59 63° W 22:27:11 10° N
Terra 4.2 22:32:37 15° NNE 22:32:37 15° NNE 22:33:39 10° N
ERS-1 Rocket 3.9 22:31:23 45° NW 22:31:23 45° NW 22:35:00 10° NNW
Cosmos 2369 4.3 22:27:53 10° NNW 22:32:05 51° NNW 22:32:05 51° NNW
ARGOS 4.0 22:38:44 48° NNW 22:38:44 48° NNW 22:42:39 10° NNW
ATLAS 2AS CENTAUR R/B 3.3 23:06:32 10° NW 23:13:10 64° NW 23:13:10 64° NW
Cosmos 2322 Rocket 4.4 23:23:32 10° N 23:25:24 19° N 23:25:24 19° N
USA 267 4.3 23:43:05 39° NNW 23:43:05 39° NNW 23:47:08 10° NW
Cosmos 1980 Rocket 4.2 23:36:12 10° NNW 23:38:15 23° NNW 23:38:15 23° NNW
